{"data":{"norad_id":57376,"intl_designator":"2023-099BA","name":"STARLINK-6367","alt_names":[],"object_type":"PAYLOAD","status":"ACTIVE","operator":null,"country":"US","launch_date":"2023-07-16","launch_site_code":"AFETR","launch_vehicle":null,"mission":null,"orbit_class":"UNKNOWN","rcs_meters":null,"size_class":null,"mass_kg":null,"dimensions":null,"purposes":["comms"],"wikipedia_slug":null,"has_3d_model":false,"image_url":null,"decayed_at":null,"tle_current":{"epoch":"2026-09-20T05:38:58.294752Z","epoch_age_seconds":147147,"freshness":"FRESH","line1":"1 57376U 23099BA  26263.23539693  .00009096  00000+0  33961-3 0  9998","line2":"2 57376  42.9971 219.4826 0001135 243.0506 117.0230 15.27584379175990","mean_motion":15.27584379,"eccentricity":0.0001135,"inclination_deg":42.9971,"raan_deg":219.4826,"arg_perigee_deg":243.0506,"mean_anomaly_deg":117.023,"bstar":0.00033961,"rev_number":17599,"period_min":94.266478486947,"perigee_km":482.25724063598,"apogee_km":483.8147269033,"semimajor_km":6861.1729837696,"source":"CELESTRAK","updated_at":"2026-09-21T09:00:33.621589Z"}}}